Météo par heure à Dziadowek

Ce jour, 15 Janvier, Vendredi

Heure Température Précipitation Vent Pression Humidité
00:00 -16°C° 0 mm 3 m/s 737 mmHg 95%
01:00 -16°C° 0 mm 3 m/s 737 mmHg 94%
02:00 -16°C° 0 mm 3 m/s 737 mmHg 94%
03:00 -16°C° 0 mm 3 m/s 737 mmHg 94%
04:00 -15°C° 0 mm 3 m/s 737 mmHg 94%
05:00 -15°C° 0 mm 3 m/s 737 mmHg 94%
06:00 -15°C° 0.1 mm 3 m/s 737 mmHg 94%
07:00 -15°C° 0.1 mm 3 m/s 737 mmHg 95%
08:00 -15°C° 0 mm 3 m/s 737 mmHg 95%
09:00 -15°C° 0 mm 3 m/s 737 mmHg 94%
10:00 -16°C° 0 mm 3 m/s 738 mmHg 92%
11:00 -17°C° 0 mm 4 m/s 738 mmHg 91%
12:00 -17°C° 0 mm 4 m/s 738 mmHg 90%
13:00 -17°C° 0 mm 4 m/s 738 mmHg 89%
14:00 -17°C° 0 mm 4 m/s 738 mmHg 88%
15:00 -17°C° 0 mm 3 m/s 738 mmHg 90%
16:00 -18°C° 0 mm 3 m/s 739 mmHg 91%
17:00 -19°C° 0 mm 3 m/s 739 mmHg 93%
18:00 -18°C° 0 mm 3 m/s 739 mmHg 94%
19:00 -17°C° 0 mm 2 m/s 739 mmHg 94%
20:00 -17°C° 0 mm 2 m/s 739 mmHg 95%
21:00 -17°C° 0 mm 2 m/s 739 mmHg 95%
22:00 -17°C° 0 mm 2 m/s 739 mmHg 96%
23:00 -17°C° 0 mm 3 m/s 739 mmHg 96%

Demain, 16 Janvier, Samedi

Heure Température Précipitation Vent Pression Humidité
00:00 -18°C° 0 mm 3 m/s 739 mmHg 96%
01:00 -18°C° 0 mm 3 m/s 739 mmHg 96%
02:00 -18°C° 0 mm 3 m/s 739 mmHg 96%
03:00 -17°C° 0 mm 2 m/s 738 mmHg 96%
04:00 -17°C° 0 mm 2 m/s 738 mmHg 96%
05:00 -17°C° 0 mm 2 m/s 737 mmHg 97%
06:00 -16°C° 0.1 mm 2 m/s 737 mmHg 96%
07:00 -15°C° 0.1 mm 2 m/s 737 mmHg 96%
08:00 -14°C° 0.1 mm 2 m/s 737 mmHg 95%
09:00 -14°C° 0.6 mm 2 m/s 736 mmHg 95%
10:00 -13°C° 0.6 mm 2 m/s 736 mmHg 95%
11:00 -12°C° 0.6 mm 2 m/s 735 mmHg 94%
12:00 -14°C° 0.3 mm 3 m/s 735 mmHg 94%
13:00 -14°C° 0.3 mm 3 m/s 735 mmHg 93%
14:00 -15°C° 0.3 mm 4 m/s 735 mmHg 93%
15:00 -16°C° 0.1 mm 4 m/s 736 mmHg 93%
16:00 -17°C° 0.1 mm 4 m/s 736 mmHg 93%
17:00 -18°C° 0.1 mm 4 m/s 736 mmHg 93%
18:00 -19°C° 0 mm 4 m/s 737 mmHg 94%
19:00 -21°C° 0 mm 3 m/s 737 mmHg 95%
20:00 -22°C° 0 mm 3 m/s 738 mmHg 96%
21:00 -23°C° 0 mm 3 m/s 739 mmHg 96%
22:00 -23°C° 0 mm 3 m/s 739 mmHg 97%
23:00 -24°C° 0 mm 3 m/s 739 mmHg 97%

Après-demain, 17 Janvier, Dimanche

Heure Température Précipitation Vent Pression Humidité
00:00 -23°C° 0 mm 2 m/s 740 mmHg 96%
01:00 -24°C° 0 mm 2 m/s 740 mmHg 95%
02:00 -24°C° 0 mm 2 m/s 740 mmHg 94%
03:00 -24°C° 0 mm 2 m/s 740 mmHg 93%
04:00 -24°C° 0 mm 2 m/s 740 mmHg 91%
05:00 -24°C° 0 mm 2 m/s 740 mmHg 90%
06:00 -21°C° 0 mm 1 m/s 740 mmHg 89%
07:00 -21°C° 0 mm 1 m/s 740 mmHg 89%
08:00 -21°C° 0 mm 1 m/s 741 mmHg 88%
09:00 -20°C° 0 mm 1 m/s 741 mmHg 87%
10:00 -19°C° 0 mm 1 m/s 741 mmHg 87%
11:00 -18°C° 0 mm 1 m/s 742 mmHg 86%
12:00 -17°C° 0 mm 1 m/s 742 mmHg 86%
13:00 -17°C° 0 mm 1 m/s 742 mmHg 86%
14:00 -16°C° 0 mm 1 m/s 742 mmHg 85%
15:00 -17°C° 0 mm 1 m/s 742 mmHg 88%
16:00 -17°C° 0 mm 1 m/s 742 mmHg 90%
17:00 -18°C° 0 mm 1 m/s 742 mmHg 92%
18:00 -19°C° 0 mm 1 m/s 742 mmHg 92%
19:00 -19°C° 0 mm 1 m/s 742 mmHg 92%
20:00 -20°C° 0 mm 1 m/s 743 mmHg 92%
21:00 -20°C° 0 mm 1 m/s 743 mmHg 92%
22:00 -20°C° 0 mm 1 m/s 743 mmHg 91%
23:00 -21°C° 0 mm 1 m/s 743 mmHg 91%

18 Janvier, Lundi

Heure Température Précipitation Vent Pression Humidité
00:00 -21°C° 0 mm 1 m/s 743 mmHg 91%
01:00 -21°C° 0 mm 1 m/s 743 mmHg 91%
02:00 -21°C° 0 mm 1 m/s 743 mmHg 91%
03:00 -21°C° 0 mm 1 m/s 743 mmHg 91%
04:00 -20°C° 0 mm 1 m/s 743 mmHg 91%
05:00 -20°C° 0 mm 1 m/s 742 mmHg 91%
06:00 -20°C° 0 mm 1 m/s 743 mmHg 91%
07:00 -20°C° 0 mm 1 m/s 743 mmHg 91%
08:00 -20°C° 0 mm 1 m/s 743 mmHg 91%
09:00 -19°C° 0 mm 1 m/s 743 mmHg 90%
10:00 -18°C° 0 mm 1 m/s 743 mmHg 89%
11:00 -16°C° 0 mm 1 m/s 743 mmHg 88%
12:00 -15°C° 0 mm 1 m/s 743 mmHg 88%
13:00 -14°C° 0 mm 1 m/s 743 mmHg 88%
14:00 -13°C° 0 mm 1 m/s 743 mmHg 87%
15:00 -14°C° 0 mm 1 m/s 743 mmHg 89%
16:00 -16°C° 0 mm 1 m/s 743 mmHg 90%
17:00 -17°C° 0 mm 1 m/s 742 mmHg 91%
18:00 -19°C° 0 mm 2 m/s 742 mmHg 91%
19:00 -19°C° 0 mm 2 m/s 742 mmHg 91%
20:00 -19°C° 0 mm 2 m/s 742 mmHg 90%
21:00 -20°C° 0 mm 2 m/s 742 mmHg 90%
22:00 -20°C° 0 mm 2 m/s 742 mmHg 90%
23:00 -20°C° 0 mm 2 m/s 742 mmHg 90%

19 Janvier, Mardi

Heure Température Précipitation Vent Pression Humidité
00:00 -20°C° 0 mm 2 m/s 742 mmHg 90%
01:00 -20°C° 0 mm 2 m/s 742 mmHg 90%
02:00 -22°C° 0 mm 3 m/s 742 mmHg 89%
03:00 -22°C° 0 mm 3 m/s 742 mmHg 89%
04:00 -22°C° 0 mm 3 m/s 741 mmHg 89%
05:00 -22°C° 0 mm 3 m/s 741 mmHg 89%
06:00 -21°C° 0 mm 3 m/s 741 mmHg 89%
07:00 -21°C° 0 mm 3 m/s 741 mmHg 89%
08:00 -22°C° 0 mm 4 m/s 741 mmHg 89%
09:00 -20°C° 0 mm 4 m/s 741 mmHg 89%
10:00 -18°C° 0 mm 4 m/s 741 mmHg 89%
11:00 -18°C° 0 mm 5 m/s 741 mmHg 90%
12:00 -17°C° 0 mm 5 m/s 741 mmHg 91%
13:00 -15°C° 0 mm 4 m/s 740 mmHg 92%
14:00 -14°C° 0 mm 4 m/s 740 mmHg 93%
15:00 -14°C° 0 mm 4 m/s 740 mmHg 93%
16:00 -12°C° 0 mm 4 m/s 740 mmHg 94%
17:00 -12°C° 0 mm 4 m/s 740 mmHg 94%
18:00 -12°C° 0 mm 4 m/s 740 mmHg 95%
19:00 -11°C° 0 mm 4 m/s 739 mmHg 95%
20:00 -12°C° 0 mm 5 m/s 739 mmHg 96%
21:00 -11°C° 0 mm 5 m/s 739 mmHg 95%
22:00 -10°C° 0 mm 5 m/s 739 mmHg 95%
23:00 -8°C° 0 mm 5 m/s 739 mmHg 94%

20 Janvier, Mercredi

Heure Température Précipitation Vent Pression Humidité
00:00 -7°C° 0 mm 5 m/s 738 mmHg 94%
01:00 -8°C° 0 mm 6 m/s 738 mmHg 94%
02:00 -8°C° 0 mm 6 m/s 737 mmHg 94%
03:00 -8°C° 0.2 mm 7 m/s 737 mmHg 94%
04:00 -8°C° 0.2 mm 7 m/s 736 mmHg 94%
05:00 -8°C° 0.2 mm 7 m/s 736 mmHg 93%
06:00 -8°C° 0.5 mm 7 m/s 736 mmHg 93%
07:00 -8°C° 0.5 mm 7 m/s 735 mmHg 93%
08:00 -8°C° 0.5 mm 7 m/s 735 mmHg 93%
09:00 -7°C° 0.1 mm 7 m/s 735 mmHg 94%
10:00 -5°C° 0.1 mm 6 m/s 735 mmHg 94%
11:00 -5°C° 0.1 mm 6 m/s 735 mmHg 95%
12:00 -4°C° 0 mm 6 m/s 735 mmHg 96%
13:00 -3°C° 0 mm 6 m/s 735 mmHg 97%
14:00 -2°C° 0 mm 5 m/s 735 mmHg 98%
15:00 -3°C° 0.2 mm 6 m/s 735 mmHg 98%
16:00 -3°C° 0.2 mm 6 m/s 735 mmHg 98%
17:00 -3°C° 0.2 mm 6 m/s 734 mmHg 98%
18:00 -3°C° 0.2 mm 6 m/s 734 mmHg 98%
19:00 -2°C° 0.2 mm 6 m/s 734 mmHg 97%
20:00 -2°C° 0.2 mm 6 m/s 734 mmHg 97%
21:00 -2°C° 0.3 mm 6 m/s 734 mmHg 97%
22:00 -3°C° 0.3 mm 6 m/s 734 mmHg 96%
23:00 -3°C° 0.3 mm 6 m/s 734 mmHg 95%
Voir plus

Nous avons besoin de votre consentement

Meteoprog et ses fournisseurs de services peuvent stocker et accéder à des données personnelles telles que des cookies, des identifiants d'appareils ou d'autres technologies similaires sur votre appareil et traiter ces données pour personnaliser le contenu et les publicités, ainsi que pour fournir des fonctionnalités de médias sociaux et analyser le trafic.

  • Stocker et/ou accéder à des informations sur votre appareil

    Des cookies, des identifiants d'appareils ou d'autres informations peuvent être stockés ou accessibles sur votre appareil aux fins indiquées ci-dessus.

  • Annonces et contenus personnalisés, mesure des annonces et des contenus, connaissance de l'audience et développement de produits

    Les annonces et le contenu peuvent être personnalisés en fonction d'un profil. D'autres données peuvent être ajoutées pour mieux personnaliser les annonces et le contenu. Les performances des publicités et du contenu peuvent être mesurées. Il est possible d'obtenir des informations sur le public qui a vu les publicités et le contenu. Ces données peuvent être utilisées pour développer ou améliorer l'expérience de l'utilisateur, les systèmes et les logiciels.

En cliquant sur "J'accepte", vous autorisez l'utilisation de cookies, des identifiants d'appareils, des balises web ou d'autres technologies similaires. Vos paramètres peuvent être modifiés dans le navigateur de votre appareil.

Dans certains cas, des intérêts légitimes peuvent être invoqués plutôt qu'un consentement. Vous pouvez en savoir plus à ce sujet dans notre Politique de confidentialité et de cookies.